ハーゲンローザー彗星

168P/Hergenrother (2019)

English version
Home page
Updated on November 3, 2020

---------------------------------------------------------------------

・ プロフィール

・ 軌道要素

Epoch 2019 Aug. 25.0 TT = JDT 2458720.5
T 2019 Aug. 5.15722 TT                                  MPC
q   1.3589068            (2000.0)            P               Q
n   0.14546330     Peri.   14.99076     +0.98193895     -0.18694983
a   3.5806931      Node   355.47153     +0.11207687     +0.69859917
e   0.6204906      Incl.   21.61171     +0.15242922     +0.69065835
P   6.78
From 3172 observations 1998 Nov. 21-2013 Jan. 16, mean residual 0".9.
     Nongravitational parameters A1 = +2.68, A2 = +0.2381.

・ 星図

・ 光度変化

        m1 = 20.0 + 5 logΔ + 10.0 log r

        ※ 灰色の曲線は、m1 = 5.0 + 5 logΔ + 50 log r(t - 25) の光度曲線です。

---------------------------------------------------------------------

軌道要素はM.P.E.C. 2013-B90に掲載されたものです。
星図はステラナビゲータ Ver.8 (アストロアーツ) で作成したものです。
光度グラフはComet for Windowsで作成したものです。

---------------------------------------------------------------------

Copyright(C) Seiichi Yoshida (comet@aerith.net). All rights reserved.